{"data":{"norad_id":59739,"epoch":"2026-05-25T04:35:36.916800Z","epoch_age_seconds":61606,"freshness":"FRESH","line1":"1 59739U 24090K   26145.19139950  .00002230  00000+0  90530-4 0  9990","line2":"2 59739  42.9999 111.1475 0001210 268.8987  91.1726 15.27586353115142","mean_motion":15.27586353,"eccentricity":0.000121,"inclination_deg":42.9999,"raan_deg":111.1475,"arg_perigee_deg":268.8987,"mean_anomaly_deg":91.1726,"bstar":9.053e-5,"rev_number":11514,"period_min":94.266356672538,"perigee_km":482.19987172228,"apogee_km":483.86027415393,"semimajor_km":6861.1670729381,"source":"CELESTRAK","updated_at":"2026-05-25T13:38:19.052199Z"}}